Location: Oakland
(41.0130°N, 74.2650°W)
Time: 14:42:02
(UTC-04:00)

Daily predictions for brighter satellites

Satellite Brightness Start Highest point End
(mag) Time Altitude Azimuth Time Altitude Azimuth Time Altitude Azimuth
Cosmos 990 Rocket 4.4 20:40:56 10° SSW 20:46:07 72° WNW 20:51:22 10° NNE
Envisat 3.0 20:42:10 10° SSE 20:47:13 77° ENE 20:52:19 10° N
Tsikada Rocket 4.3 20:45:58 10° SSW 20:52:10 73° W 20:58:20 10° N
Cosmos 1939 Rocket 3.0 20:48:39 10° SSE 20:52:44 62° ENE 20:56:49 10° N
Helios 1A 3.4 20:49:57 10° SSE 20:53:58 48° ENE 20:58:02 10° N
Cosmos 2221 Rocket 4.1 20:51:08 10° N 20:55:21 41° ENE 20:59:34 10° SSE
Cosmos 1825 3.2 20:54:37 10° SSE 20:57:49 26° E 21:01:02 10° NNE
SJ-11-01 4.3 20:58:19 10° SSE 21:03:02 78° ENE 21:07:45 10° N
Meteor 2-3 Rocket 3.9 20:57:29 10° SSW 21:03:12 81° W 21:08:53 10° N
Cosmos 1125 Rocket 3.7 20:58:10 10° S 21:03:12 50° ESE 21:08:15 10° NNE
Cosmos 1634 Rocket 4.0 20:58:49 10° N 21:05:08 76° E 21:11:27 10° SSE
Cosmos 2344 3.9 21:03:55 10° S 21:11:01 42° ESE 21:18:36 10° NE
USA 186 3.7 21:09:55 10° SSW 21:12:14 25° W 21:14:43 10° NW
Cosmos 1943 Rocket 2.2 21:09:18 10° S 21:14:46 59° ESE 21:20:14 10° NNE
Cosmos 1782 3.0 21:11:35 10° N 21:15:31 54° E 21:19:11 11° SSE
Cosmos 1892 4.5 21:16:30 10° SW 21:20:02 35° WNW 21:23:35 10° N
deb Kosmos-1763 4.3 21:18:01 10° N 21:21:45 55° ENE 21:24:31 17° SE
Cosmos 158 Rocket 3.9 21:18:50 10° NNW 21:23:43 66° ENE 21:27:45 15° SSE
Resurs 01 Rocket 4.0 21:24:04 10° SW 21:27:31 22° W 21:31:00 10° NW
Okean 1-7 3.1 21:23:57 10° N 21:28:23 87° W 21:32:45 10° S
DELTA 2 R/B(2) 2.8 21:28:25 10° WSW 21:30:08 57° S 21:30:23 47° SE
SAR-Lupe-4 3.5 21:27:23 14° SSE 21:30:21 78° ENE 21:33:56 10° N
Cosmos 1340 2.9 21:28:13 10° N 21:31:57 53° ENE 21:34:23 20° SSE
NOAA 11 4.2 21:29:43 13° SSE 21:34:38 71° ENE 21:40:07 10° N
Cosmos 2279 Rocket 4.0 21:30:16 10° N 21:36:33 78° E 21:42:29 11° S
Cosmos 2263 4.5 21:30:51 10° SSW 21:36:36 74° WNW 21:42:21 10° NNE
Cosmos 1862 3.6 21:33:56 16° SSE 21:36:50 45° E 21:40:39 10° NNE
Meteor 1-29 3.3 21:37:19 10° N 21:40:47 67° WNW 21:44:14 10° SSW
YAOGAN 6 3.6 21:37:45 10° S 21:41:19 45° W 21:44:52 10° NNW
H-2A R/B 2.8 21:40:00 20° SE 21:43:12 38° ENE 21:48:03 10° N
CZ-4B DEB 3.5 21:41:28 14° S 21:43:45 45° W 21:46:36 10° NNW
Terra 3.6 21:42:01 14° E 21:43:59 17° ENE 21:47:04 10° NNE
Cosmos 2369 Rocket 3.4 21:38:44 10° SW 21:44:09 46° WNW 21:49:39 10° NNE
ISS -1.3 21:42:13 10° WNW 21:44:53 23° NNW 21:47:34 10° NNE
Tiangong 2 3.7 21:44:56 10° WSW 21:46:02 11° SW 21:47:06 10° SSW
ERS-1 Rocket 3.0 21:43:43 15° SSE 21:47:52 88° WSW 21:52:56 10° NNW
Helios 1B rocket 3.5 21:44:05 10° N 21:48:03 47° WNW 21:51:59 10° SW
SAR-Lupe-1 4.3 21:49:32 19° S 21:51:56 65° WSW 21:55:30 10° NNW
Cosmos 1606 3.3 21:50:01 10° NNW 21:53:42 53° W 21:56:41 15° SSW
GPS 2-04 Rocket1 3.8 21:51:56 10° WSW 21:54:57 23° SSW 21:55:27 22° S
Cosmos 1833 4.2 21:50:04 10° NNW 21:55:53 85° ENE 21:59:28 24° SSE
Lacrosse 4 Rocket 1.6 21:52:54 10° NNW 21:57:24 78° WSW 21:59:44 27° SSE
MetOp-B 4.1 21:53:50 19° SSE 21:57:46 89° WSW 22:03:09 10° NNW
USA 215 3.4 21:53:28 20° ESE 21:58:10 68° NE 22:04:41 10° NW
H-2A ROCKET BODY 3.8 21:55:57 10° SSW 21:58:45 17° S 21:58:45 17° S
Cosmos 1733 Rocket 3.0 21:56:23 23° S 21:58:59 64° E 22:03:18 10° NNE
ATLAS 5 CENTAUR R/B 2.6 21:54:24 10° NW 22:00:27 73° WSW 22:04:39 23° SSE
Cosmos 2297 Rocket 4.4 22:00:45 10° NNE 22:03:08 13° NE 22:05:32 10° ENE
Milstar 3 3.9 21:53:41 10° WSW 22:04:06 35° S 22:07:43 25° SE
ATLAS CENTAUR R/B 2.0 22:05:12 33° ESE 22:05:12 33° ESE 22:08:22 10° NE
Cosmos 1437 3.6 22:06:12 10° N 22:09:07 34° ENE 22:09:07 34° ENE
Cosmos 1656 Rocket 3.5 22:03:51 10° SSW 22:09:16 74° ESE 22:14:48 10° NNE
Cosmos 1408 4.4 22:05:56 10° SW 22:09:16 31° WNW 22:12:39 10° NNW
SPOT 5 3.0 22:06:19 26° SSE 22:09:25 83° ENE 22:14:44 10° NNW
ARGOS 3.2 22:10:08 24° S 22:13:30 78° WSW 22:18:54 10° NNW
Meteor 2-20 4.5 22:10:02 24° SSE 22:13:42 60° E 22:19:41 10° NNE
Alouette 2 Rocket 4.4 22:06:52 10° S 22:14:42 83° ESE 22:19:42 10° NNE
Lacrosse 5 rocket 4.1 22:13:46 10° WNW 22:16:16 18° NNW 22:18:50 10° NNE
Sich 1 Rocket 4.0 22:18:37 39° ESE 22:19:11 41° E 22:23:20 10° NNE
CENTAUR R/B 3.7 22:14:09 10° WSW 22:20:01 46° NW 22:26:40 10° NNE
Cosmos 1346 4.2 22:21:07 10° N 22:22:51 31° NNE 22:22:51 31° NNE
Cosmos 1975 Rocket 4.3 22:21:25 10° NNE 22:25:13 27° ENE 22:25:33 26° E
Meteor 1-27 Rocket 4.2 22:22:19 10° NNW 22:27:55 56° W 22:31:31 21° SSW
Cosmos 2026 Rocket 4.3 22:30:32 36° SE 22:32:24 47° E 22:38:21 10° NNE
Cosmos 2251 Rocket 3.5 22:27:39 10° NNW 22:32:54 72° ENE 22:34:28 45° SE
CARTOSAT-1 3.9 22:33:13 46° E 22:33:47 49° ENE 22:37:58 10° N
SL-08 RB Rocket 4.2 22:32:59 31° SSW 22:35:00 55° W 22:39:36 10° NNW
Cosmos 1378 Rocket 3.6 22:31:59 10° N 22:36:24 64° E 22:37:00 56° ESE
Cosmos 1674 Rocket 3.7 22:32:25 10° NNW 22:36:44 68° W 22:37:55 44° SSW
SPOT 1/Viking Rocket 3.7 22:39:33 36° S 22:41:38 67° WSW 22:46:50 10° NNW
DMSP B5D2-2 3.9 22:36:29 10° NNE 22:41:44 81° ESE 22:43:38 40° S
Okean 3 3.2 22:39:17 10° N 22:43:29 86° E 22:43:54 72° SSE
IGS 5A 3.5 22:43:48 59° E 22:43:59 59° ENE 22:48:05 10° N
H-2A R/B 2.5 22:50:34 43° ENE 22:50:34 43° ENE 22:54:22 10° N
Meteor 1-25 Rocket 4.3 22:50:55 49° SE 22:52:09 61° E 22:57:55 10° NNE
Cosmos 2227 Rocket 3.2 22:48:46 10° N 22:53:52 34° ENE 22:55:17 29° E
S3M 4.5 22:52:43 10° N 22:58:30 42° ENE 22:59:37 39° ESE
Cosmos 1092 Rocket 4.3 22:56:29 25° SSW 23:00:09 63° W 23:06:15 10° N
Cosmos 2219 3.2 22:57:00 10° NNW 23:02:45 76° WSW 23:04:04 54° S
Landsat 7 4.3 23:05:14 45° SW 23:06:08 53° W 23:10:48 10° NNW
GEOS 3 Rocket 3.6 23:05:52 58° ESE 23:06:48 72° NE 23:12:02 10° NNW
Cosmos 1812 3.0 23:04:26 10° N 23:07:47 65° NNW 23:07:47 65° NNW
Meteor 1-14 Rocket 4.5 23:13:13 39° SSW 23:15:25 68° W 23:21:12 10° N
Cosmos 1553 Rocket 4.0 23:09:24 10° N 23:15:43 64° E 23:16:48 55° SE
Cosmos 1980 Rocket 4.5 23:20:06 10° ENE 23:20:06 10° ENE 23:20:13 10° ENE
Cosmos 2369 4.2 23:20:17 44° E 23:20:17 44° E 23:25:02 10° NE
Cosmos 1867 4.4 23:15:30 10° NW 23:20:31 38° WSW 23:21:08 37° SW
Terra 2.2 23:20:55 51° WSW 23:21:18 53° W 23:25:58 10° NNW
ISS -0.6 23:20:41 10° NNW 23:22:16 13° N 23:23:51 10° NNE
H-2A R/B 3.7 23:20:37 22° SW 23:22:37 28° W 23:27:10 10° NW
CZ-4B R/B 3.6 23:18:53 10° NNE 23:23:15 59° ENE 23:23:15 59° ENE
Okean 2 Rocket 3.3 23:29:03 69° NNW 23:29:03 69° NNW 23:33:03 10° N
Cosmos 405 Rocket 3.9 23:27:21 10° NNW 23:29:59 38° NW 23:29:59 38° NW
Meteor 1-11 Rocket 4.3 23:33:20 46° E 23:33:20 46° E 23:38:49 10° NNE
APEX 4.3 23:29:31 10° NNW 23:32:37 44° NNW 23:32:37 44° NNW
Gbstr 26 Del rocket 3.7 23:31:36 10° NW 23:35:02 47° NNW 23:35:02 47° NNW
Cosmos 2056 Rocket 4.5 23:40:28 34° ENE 23:40:28 34° ENE 23:43:52 10° NNE
deb Chang Zheng 4 4.0 23:35:26 10° N 23:39:30 62° NW 23:39:30 62° NW
DELTA 2 DEB (DPAF) 4.5 23:40:35 64° N 23:40:35 64° N 23:44:24 10° NNW
USA 215 4.0 23:40:49 34° SW 23:41:24 35° SW 23:47:18 10° WNW
CZ-4C R/B 4.2 23:43:49 52° N 23:43:49 52° N 23:46:57 10° NNW
Cosmos 1697 Rocket 3.8 23:45:10 32° ENE 23:45:10 32° ENE 23:48:51 10° NE
ATLAS CENTAUR R/B 3.5 23:41:20 13° W 23:43:50 22° NW 23:46:56 10° N
Cosmos 2266 Rocket 4.0 23:44:11 59° E 23:44:21 59° E 23:50:21 10° NNE
CZ-2C R/B 3.6 23:45:38 46° ENE 23:45:38 46° ENE 23:50:02 10° N
Cosmos 2297 Rocket 2.1 23:42:33 10° NNW 23:48:14 73° ENE 23:48:21 72° ENE
BREEZE-M DEB (TANK) 4.3 23:31:30 10° WNW 23:49:44 76° SSW 23:50:53 62° SSE
ARGOS Delta rocket 4.3 23:50:49 10° N 23:54:44 50° NW 23:54:44 50° NW
